Theta_e
339 339 338 338 340 341 343 343 341 340 341 341 340 339 340 342 344 343 342 342 343 345 343 342 345 348 350 352 352 353 353 352 351 350 351 352 353 352 349 343 340 343 345 344 342 341 341 341 342 343 344 344 345 345 345 345 345 345 345 344 345 344 345 345 345 346 346 347 347 348 348 348 349 348
340 339 338 337 337 338 339 342 342 341 341 340 340 340 339 340 340 341 342 342 342 344 342 340 342 347 350 351 351 353 353 352 351 351 351 352 354 353 353 348 343 343 345 344 344 343 343 344 344 344 344 344 345 345 345 346 346 345 345 345 345 345 344 344 344 345 346 347 348 348 349 349 349 349
337 338 339 337 336 337 338 340 342 340 340 340 340 339 338 338 340 343 345 344 343 343 343 341 341 345 350 351 351 352 352 351 350 351 353 353 354 354 354 352 346 343 344 344 344 344 344 344 343 344 344 345 346 346 346 346 346 345 345 345 344 344 344 344 344 344 346 347 348 348 349 350 349 349
334 335 337 336 336 337 338 340 340 340 340 339 340 339 339 340 343 347 348 345 343 342 342 341 341 344 349 351 352 351 351 351 350 350 353 354 353 354 355 353 348 343 343 343 343 344 344 344 344 345 345 346 346 346 345 345 345 345 344 344 344 344 343 344 343 344 345 347 348 348 349 349 349 349
334 334 334 335 335 337 338 339 339 341 341 340 340 339 339 340 341 344 346 345 343 342 342 342 341 343 347 350 352 352 350 352 352 350 352 353 354 355 355 355 350 344 344 344 344 345 345 345 346 346 346 346 346 346 346 346 345 345 345 345 345 344 344 344 343 344 345 346 347 347 348 348 349 349
333 333 333 334 334 334 336 338 337 338 340 341 341 339 338 338 337 339 343 343 343 343 342 342 341 341 345 348 350 351 350 351 352 353 352 351 353 355 354 354 352 347 345 345 345 346 346 346 346 345 345 345 345 345 345 345 345 345 345 345 345 345 344 344 344 344 345 346 347 347 347 347 348 349
333 333 334 335 334 333 334 336 336 336 338 341 340 338 338 338 337 338 341 342 342 343 342 341 341 341 344 346 347 349 350 350 352 354 353 352 355 355 349 348 351 352 348 346 346 346 346 345 345 345 344 344 343 343 343 344 344 345 345 345 345 345 345 346 345 345 345 346 347 347 346 347 347 347
331 331 332 334 334 334 333 334 336 337 338 340 341 338 337 337 336 338 341 341 342 343 343 342 342 342 344 346 346 347 349 349 351 353 354 354 356 352 345 343 348 351 351 349 346 346 346 346 345 345 345 343 343 343 343 343 344 344 345 345 345 345 345 346 346 346 346 346 346 346 345 345 345 345
330 331 331 332 334 335 334 332 333 336 338 340 341 339 338 337 337 338 341 342 343 344 344 344 343 343 344 345 346 348 348 348 350 353 354 355 354 351 348 348 348 347 350 351 350 347 346 346 345 345 345 343 343 342 342 343 343 343 344 344 345 345 345 346 346 346 347 346 346 346 346 345 346 345
329 330 330 331 331 333 334 332 332 334 337 339 341 340 339 338 337 337 339 342 344 344 344 344 343 344 344 344 347 348 348 348 348 350 352 352 353 352 352 353 351 348 350 352 351 348 347 346 346 346 345 345 345 345 345 344 344 344 344 344 344 344 345 346 346 346 346 346 346 347 347 347 347 346
328 328 328 329 329 329 330 330 330 332 334 338 341 341 339 338 337 336 337 342 344 344 344 343 343 344 345 345 346 348 348 348 349 349 350 350 352 353 353 352 350 349 351 352 350 347 346 346 346 346 346 346 345 344 343 343 343 343 343 343 343 343 344 346 347 347 346 346 346 346 347 347 347 348
327 327 326 326 327 326 326 327 328 331 333 336 339 339 338 339 339 337 337 340 343 343 344 344 343 344 344 344 345 347 349 349 349 349 349 349 351 352 351 350 348 348 349 349 348 348 348 347 346 346 345 345 344 342 342 341 341 342 342 343 343 343 345 346 347 347 346 346 346 347 348 349 350 350
325 325 325 325 324 324 325 325 327 330 332 335 336 336 338 339 339 338 335 338 342 343 343 344 343 344 344 343 344 346 347 347 347 348 347 348 349 350 351 350 349 348 347 347 349 351 351 350 350 348 345 345 343 342 342 341 340 339 340 342 342 343 345 347 347 347 346 346 346 347 349 350 350 350
324 324 323 323 322 323 325 324 324 327 328 330 332 334 337 337 338 339 337 337 341 343 342 342 342 343 343 343 344 345 346 346 346 347 348 348 349 351 351 349 348 348 348 350 353 355 355 354 354 351 349 349 347 344 342 340 338 337 339 340 341 342 345 346 347 347 346 346 347 349 350 351 350 350
323 322 322 321 321 323 324 323 324 325 324 325 327 329 332 334 336 339 337 337 342 345 342 340 341 342 341 342 344 344 344 346 346 347 349 350 351 351 349 348 347 348 350 353 355 356 355 357 355 353 354 355 353 349 345 341 338 336 337 339 342 344 346 347 348 348 346 347 349 350 350 350 349 349
323 321 320 320 321 322 323 323 324 324 322 323 324 325 328 330 332 336 336 337 341 344 342 340 342 341 341 342 344 343 343 345 347 347 349 350 350 349 348 348 349 350 352 353 354 354 356 357 356 355 356 355 354 351 346 341 338 337 337 340 343 346 348 348 349 348 348 349 350 350 350 350 350 350
323 322 320 320 321 321 322 322 323 323 322 322 323 323 326 327 330 333 335 336 339 341 340 341 341 341 343 343 342 342 344 346 347 347 349 350 349 348 347 346 345 347 350 351 351 351 353 355 355 355 355 354 353 351 346 340 339 339 339 341 345 347 349 349 349 349 349 350 351 351 350 350 350 350
324 323 322 321 321 321 322 322 322 322 321 321 322 323 325 326 328 332 334 335 336 338 339 339 339 340 341 341 342 343 344 346 347 348 349 350 348 346 345 344 343 347 350 351 351 351 350 352 353 352 352 353 352 351 349 345 343 342 343 344 346 349 349 349 349 348 349 351 350 350 349 348 348 349
325 324 323 323 323 322 323 323 322 322 321 320 321 323 325 325 326 330 334 336 336 336 338 338 338 338 339 340 342 343 343 343 347 349 349 349 348 346 346 346 347 351 353 351 350 351 350 351 352 350 350 351 350 350 349 347 345 345 344 346 348 349 349 348 347 346 348 348 349 349 348 348 347 347
326 325 324 324 324 324 324 324 324 323 322 321 321 323 325 325 326 328 333 336 337 337 337 338 338 339 339 340 342 343 342 342 346 348 347 347 348 348 347 348 347 348 350 350 349 349 348 350 351 350 349 350 349 349 349 348 346 345 346 348 348 348 347 345 343 343 344 346 347 348 348 347 347 346
327 326 325 325 325 324 325 325 325 325 324 322 321 322 324 325 326 328 331 335 338 337 336 337 338 338 339 339 340 341 341 342 344 345 346 346 347 346 345 345 345 345 346 348 348 347 347 350 351 349 349 349 349 348 348 348 347 346 347 348 347 346 344 343 342 342 343 345 347 348 348 347 347 346
328 327 326 325 325 326 325 325 325 325 325 323 322 322 323 324 325 329 332 336 338 338 337 336 336 337 338 338 339 340 340 340 341 344 345 345 345 345 345 345 345 344 344 346 347 347 347 350 350 349 349 350 349 347 348 348 347 347 347 346 345 344 342 341 342 343 344 346 348 349 348 348 349 349
329 328 327 325 326 327 326 324 323 324 325 324 322 322 322 323 324 327 331 337 339 338 337 337 336 337 337 338 339 339 339 340 340 341 342 343 343 344 345 346 346 344 344 345 347 347 347 349 351 350 349 349 349 348 348 348 347 346 345 344 343 342 342 341 341 342 344 346 348 350 349 349 349 348
329 328 328 327 328 327 325 323 322 323 325 325 323 322 322 322 323 323 327 334 338 339 339 338 338 337 338 338 338 338 339 340 340 340 341 341 341 342 344 345 345 344 343 346 348 347 346 348 350 350 348 347 349 349 348 347 346 345 345 344 343 342 342 342 341 341 342 343 345 347 348 348 348 347
329 328 328 329 328 326 323 321 322 324 324 324 323 323 322 322 323 324 327 332 337 339 340 340 339 339 339 338 339 339 339 340 340 340 340 340 341 341 342 344 344 343 343 346 347 347 346 347 348 350 348 346 347 349 348 346 346 345 344 344 344 343 342 341 341 340 340 340 341 342 344 346 346 346
328 327 327 328 328 326 322 321 323 324 323 323 324 324 322 322 324 325 328 333 337 338 340 340 340 340 340 340 339 339 339 340 340 340 340 339 341 342 341 343 344 343 343 344 346 348 349 347 346 349 351 348 346 348 348 347 346 344 345 345 344 343 342 341 341 339 339 340 340 340 340 343 345 345
327 327 326 326 326 325 321 322 324 324 323 323 324 324 323 322 323 324 326 330 334 337 340 342 342 342 341 341 340 340 339 340 340 341 340 340 340 341 341 342 344 344 345 346 346 348 348 348 348 348 349 349 348 347 347 346 346 344 344 345 344 343 343 342 341 340 339 339 339 338 338 340 342 343
326 326 324 322 323 322 321 322 325 324 323 323 323 324 324 323 323 323 323 325 328 331 336 341 343 344 343 342 343 342 341 342 342 342 341 340 341 341 342 343 345 346 346 346 347 348 349 349 348 348 348 348 347 347 346 345 345 345 344 344 344 343 343 342 341 341 339 338 339 338 337 338 339 340
324 323 321 321 322 321 321 323 324 325 324 323 323 324 324 323 323 324 324 324 324 325 327 331 334 337 339 342 342 340 340 343 344 342 340 340 340 339 341 343 346 345 344 344 346 348 349 349 348 348 347 347 346 346 346 345 345 344 344 344 343 342 342 342 341 341 339 338 338 338 338 338 337 338
321 319 322 324 322 321 322 323 323 325 325 323 323 324 324 324 325 324 324 325 325 325 325 325 326 328 332 337 340 340 341 343 343 341 340 341 340 340 342 344 344 343 343 343 343 344 346 347 348 347 346 346 346 346 345 344 345 344 343 343 344 342 341 341 341 340 339 338 338 338 338 337 337 338
319 320 325 327 324 324 325 324 323 324 325 325 325 325 324 324 326 325 325 325 326 326 325 325 325 326 327 330 334 337 340 342 341 340 341 342 342 342 343 343 340 339 341 343 343 343 344 345 346 346 345 346 348 348 344 343 344 344 344 343 342 342 342 342 342 341 340 339 338 338 338 337 337 339
320 323 327 327 326 326 327 326 325 324 324 325 326 326 324 324 325 325 326 326 326 326 326 325 326 326 326 327 328 330 333 337 339 341 342 342 341 341 341 340 339 338 339 341 343 342 343 344 345 345 344 345 348 349 346 343 343 345 345 343 341 342 342 341 341 341 340 339 339 339 338 337 338 338
322 325 326 326 326 326 326 326 326 326 325 325 326 326 326 326 326 326 326 326 326 326 327 326 326 326 326 327 328 329 330 332 335 338 340 340 340 340 339 338 339 338 338 340 341 341 341 343 343 344 344 344 345 346 346 345 344 344 344 343 341 341 341 341 341 341 340 339 340 339 339 338 338 338
325 326 326 324 324 324 323 323 324 324 324 324 324 325 326 326 326 327 327 327 327 326 327 327 327 326 325 326 327 328 328 329 330 333 335 335 335 336 336 335 336 336 338 339 339 340 340 341 341 341 341 341 341 341 342 344 343 341 341 341 340 341 342 342 341 341 341 340 341 341 340 339 339 338
325 324 323 322 321 320 320 319 319 320 321 321 321 321 322 322 323 324 325 327 327 327 327 327 327 326 326 325 325 326 327 326 327 327 328 330 330 330 329 329 329 331 332 334 335 337 340 341 340 339 339 338 337 338 338 340 340 338 339 341 342 341 341 341 340 340 340 340 341 341 341 340 339 338
321 319 319 319 318 317 317 317 316 316 317 317 317 317 317 317 317 317 320 324 325 325 326 327 327 327 326 325 324 325 325 326 326 325 325 326 327 327 327 326 326 326 327 327 328 331 335 338 338 338 339 338 338 338 336 335 337 337 338 340 341 339 339 340 340 339 340 341 342 343 342 341 341 340
317 315 315 315 314 314 314 313 313 314 314 315 314 314 314 313 313 313 316 319 321 322 324 326 326 327 327 326 325 324 325 325 326 326 326 325 326 327 326 326 325 325 325 325 324 325 327 330 332 335 338 339 339 338 334 331 333 336 337 338 338 338 338 338 339 339 340 341 342 342 342 341 340 340
315 313 312 312 312 311 311 311 310 311 311 312 312 312 312 311 312 313 314 315 317 318 320 322 324 324 325 326 326 325 324 324 325 326 327 326 326 327 327 326 325 324 324 323 322 321 322 323 326 329 334 336 336 335 332 329 328 332 336 338 338 337 337 337 337 338 339 340 339 339 340 339 338 338
313 312 311 310 309 309 309 309 308 308 309 309 310 311 311 310 310 311 313 313 314 315 316 317 319 321 323 325 325 325 324 324 325 325 326 325 325 325 325 324 324 323 323 323 322 321 321 322 323 324 327 329 330 330 330 328 326 327 332 336 336 335 335 336 336 335 336 337 337 336 337 339 338 337
310 308 307 306 306 306 306 306 306 306 306 307 309 310 310 309 309 310 311 312 313 314 315 315 317 318 320 322 323 324 324 324 324 325 325 325 324 323 323 322 322 323 323 323 323 323 322 322 322 322 323 324 325 326 327 327 326 327 330 333 334 334 334 334 334 333 334 335 335 335 336 337 337 336
305 304 303 302 302 302 302 302 303 304 304 305 306 307 308 309 308 308 309 310 312 313 314 314 315 316 318 319 321 322 323 324 325 324 324 325 324 323 322 322 322 322 324 325 324 324 323 321 320 320 320 320 321 324 327 329 329 328 328 331 333 334 334 334 333 333 333 333 332 333 334 335 334 335
302 302 301 301 300 299 299 299 299 300 301 302 303 304 306 307 307 307 307 308 310 312 313 313 313 315 316 318 319 320 321 323 325 325 325 325 325 325 324 324 323 323 324 325 324 323 323 322 320 320 320 318 319 323 328 330 329 327 327 329 332 332 333 333 333 334 334 332 331 331 333 333 332 332
300 300 300 299 298 298 297 297 296 297 298 299 300 301 302 304 304 304 305 306 307 309 310 312 313 313 315 316 317 317 318 320 323 324 324 325 326 326 326 326 325 324 324 324 324 322 322 322 323 323 322 321 321 324 327 327 326 325 325 327 329 329 329 329 328 328 329 327 325 325 326 327 327 327
300 300 299 299 298 297 296 296 295 295 295 296 297 298 299 300 301 301 302 302 303 305 307 309 310 311 312 313 314 315 316 318 320 321 322 324 325 325 324 325 326 325 324 324 325 323 323 322 323 323 323 322 322 322 324 325 325 324 323 324 326 327 327 325 324 323 323 322 320 320 320 321 322 322
299 299 299 299 298 297 296 296 296 295 294 294 295 296 297 297 298 299 300 300 301 302 304 305 307 308 310 311 312 312 313 316 317 318 319 320 322 323 324 324 325 326 325 324 325 325 325 324 323 323 323 324 323 322 322 323 324 324 323 323 324 325 325 324 323 322 321 320 319 319 319 319 319 319
Wind_Speed
20 23 25 27 28 27 24 25 28 30 29 29 29 27 23 16 8 7 10 11 12 15 18 21 21 22 24 23 22 22 23 24 25 25 25 24 23 25 27 28 28 28 29 29 30 30 30 30 30 29 29 28 27 27 27 27 27 28 29 29 29 29 29 30 30 29 29 29 29 28 28 27 26 25
18 19 23 27 29 30 29 27 27 30 31 32 32 30 28 25 19 13 11 12 14 14 18 24 24 20 22 23 22 21 21 23 24 25 25 23 22 23 25 27 27 27 27 28 28 29 28 28 28 28 28 28 27 27 27 27 28 28 29 29 30 30 30 30 31 31 30 30 30 29 28 28 27 27
19 19 22 26 27 28 29 28 27 29 31 32 33 32 32 33 30 22 15 12 15 17 16 21 25 19 17 20 20 19 20 21 22 24 23 21 21 21 23 25 27 26 27 27 27 28 28 28 28 28 28 27 27 27 27 28 28 29 29 29 29 30 30 30 31 31 31 31 30 30 29 28 28 28
21 22 23 25 25 25 26 28 28 28 29 32 33 32 33 32 28 24 19 14 14 19 18 19 23 20 16 17 17 18 18 17 20 22 21 19 20 20 20 22 25 25 25 26 27 27 27 27 27 27 27 27 27 27 28 28 28 28 28 28 28 29 29 30 31 31 31 31 31 31 30 29 29 28
23 24 25 26 27 26 26 27 28 25 25 29 31 32 33 33 30 26 23 17 13 19 23 22 24 22 18 17 16 17 18 16 17 19 19 18 18 17 17 18 21 23 24 25 26 25 26 26 26 26 26 27 27 26 26 26 27 27 27 27 27 27 28 29 30 30 31 31 32 32 32 31 30 29
25 27 28 28 29 28 27 29 31 29 25 26 29 32 32 36 38 32 26 21 15 18 23 23 25 26 22 20 18 17 18 18 17 17 19 20 18 18 18 17 17 20 22 24 24 24 25 25 25 25 25 24 24 24 25 25 25 25 25 26 26 26 27 28 29 30 31 31 32 32 32 32 32 31
24 26 27 28 29 30 29 30 32 32 29 26 29 34 33 34 39 35 28 26 22 20 23 23 24 24 23 22 21 19 19 18 17 17 19 20 19 19 21 19 16 17 20 22 23 23 24 24 24 24 24 24 24 24 24 24 24 24 24 24 25 25 26 27 29 30 31 31 31 32 32 32 32 32
24 24 26 27 28 30 32 31 30 28 27 25 27 32 34 36 39 34 27 28 26 22 22 22 23 23 22 21 21 20 19 19 19 18 19 19 20 23 23 21 20 20 20 21 22 23 23 24 24 24 24 24 24 24 24 24 24 24 24 24 24 24 25 26 27 29 30 31 31 32 32 32 33 33
25 25 26 27 27 28 31 35 33 28 25 25 25 28 32 37 40 34 26 24 24 22 21 21 21 22 22 20 19 19 19 19 19 18 18 19 21 24 23 20 21 22 20 20 22 23 24 24 25 25 25 24 24 24 24 24 24 24 24 24 24 25 25 26 26 27 28 29 31 31 32 33 33 33
25 25 25 26 28 28 28 34 37 30 26 26 26 26 30 36 40 38 30 23 21 21 22 22 21 21 22 21 19 19 20 20 19 17 17 19 20 22 21 19 19 20 21 23 25 25 25 26 26 25 25 25 24 24 24 24 25 25 25 26 25 25 26 26 26 27 27 28 29 30 31 32 33 33
25 25 25 26 27 28 28 33 38 34 29 26 26 26 29 33 38 38 31 24 21 20 21 22 23 21 21 21 20 18 18 19 19 17 18 20 21 20 20 22 23 23 22 24 26 26 26 27 27 26 25 24 24 23 24 24 25 26 27 27 27 27 27 26 26 26 27 27 28 28 30 31 31 32
24 24 25 26 26 28 30 32 34 33 28 25 26 29 30 31 34 35 31 25 21 21 20 20 22 22 22 22 21 18 17 18 19 19 19 20 19 18 19 22 26 25 23 24 25 25 26 26 26 26 25 24 24 23 24 24 25 26 27 28 28 28 27 27 26 26 26 27 27 27 28 28 29 30
24 24 23 25 27 28 30 30 29 27 26 26 27 29 28 27 28 31 32 27 21 21 21 19 20 21 21 22 22 20 19 19 19 20 20 20 18 17 18 21 25 25 23 24 23 21 23 23 23 24 25 25 25 24 23 24 24 26 26 27 27 27 27 27 27 27 27 27 27 27 26 26 26 27
24 24 23 26 29 28 27 29 27 23 21 23 26 29 30 32 31 29 30 29 23 21 21 22 22 19 18 22 23 22 21 21 20 19 20 21 19 16 14 17 24 28 26 23 20 17 19 20 20 22 23 22 23 23 23 24 25 26 26 26 26 27 27 27 27 27 27 27 27 26 25 24 24 25
24 24 24 27 29 26 26 29 27 24 25 24 22 24 27 33 36 33 29 27 24 21 21 22 23 21 20 23 25 24 23 22 22 21 20 20 18 15 12 13 19 28 28 22 18 16 17 18 18 19 20 18 18 19 20 22 23 24 24 24 24 25 26 27 27 27 27 27 26 24 23 22 22 23
22 23 24 26 26 25 26 27 24 25 29 29 26 25 24 28 34 38 37 32 25 22 22 21 22 23 24 25 24 24 24 22 22 23 21 21 21 18 16 15 16 23 26 22 18 16 16 17 18 17 17 16 16 17 19 21 22 23 23 22 22 24 25 26 26 26 26 25 24 23 22 21 22 23
19 22 25 26 26 25 26 25 24 27 30 30 29 28 25 26 30 36 42 43 36 30 26 24 25 25 25 25 24 25 24 22 21 22 20 21 23 20 18 22 24 25 27 24 19 16 17 18 18 15 15 15 15 16 19 21 22 22 21 20 21 23 24 25 25 25 24 23 22 21 21 21 21 22
19 21 24 26 26 27 26 24 26 30 31 30 29 28 26 26 28 32 38 44 47 44 37 32 33 33 30 28 27 27 28 25 22 22 20 20 23 25 27 31 29 24 25 24 17 15 17 19 17 15 14 14 14 14 16 19 20 20 20 20 20 22 23 23 23 23 22 21 20 21 20 20 21 21
22 23 24 25 27 29 27 25 27 33 35 32 29 29 29 28 27 30 34 38 44 46 44 40 39 38 36 32 27 27 31 30 23 20 19 19 22 24 27 29 23 17 19 21 16 13 15 17 17 16 14 14 13 13 15 18 19 18 18 19 20 22 22 22 21 21 20 19 19 19 20 19 19 20
23 24 25 25 26 29 29 27 29 33 35 33 30 29 32 31 29 30 34 38 40 42 43 43 41 40 37 34 30 29 31 29 24 19 17 18 17 14 13 16 19 19 20 21 19 15 14 17 17 15 14 14 13 13 14 17 17 17 18 20 21 21 20 20 20 19 18 18 18 18 18 17 17 17
23 24 26 26 26 28 29 30 32 34 34 33 30 30 32 33 30 29 31 35 40 43 43 43 44 44 41 37 33 33 33 28 23 21 19 18 18 13 9 11 18 21 21 23 22 17 15 16 16 14 13 13 13 13 14 15 15 16 19 20 20 20 19 18 18 17 16 15 15 16 16 15 15 14
24 24 25 25 25 28 29 30 33 35 36 35 33 32 34 33 30 27 27 30 36 42 44 45 45 45 46 42 36 33 34 31 26 23 21 19 19 17 14 13 16 18 20 24 24 18 16 16 16 14 12 12 14 14 14 14 14 16 19 19 18 18 18 17 16 15 15 14 14 15 15 14 14 16
24 23 23 25 26 27 27 28 31 32 34 36 34 34 35 33 30 27 25 28 30 34 38 41 43 43 43 45 42 36 34 34 33 29 24 21 20 18 16 15 14 13 16 22 25 20 16 16 17 16 12 9 11 14 14 14 14 14 17 18 18 18 17 15 15 15 15 16 15 15 15 15 16 17
23 21 22 25 26 25 23 24 28 30 31 33 32 33 35 35 34 31 25 27 27 28 31 32 34 35 36 39 43 41 35 34 36 34 28 24 23 21 20 18 16 14 15 20 26 22 17 17 18 18 14 9 8 12 15 15 13 12 14 15 16 17 17 15 15 15 15 16 16 15 15 15 16 16
20 21 22 23 22 23 21 22 26 29 30 30 30 34 37 38 39 32 20 26 26 23 25 28 29 29 29 32 36 39 37 35 36 35 31 27 25 24 24 20 19 20 18 18 25 23 16 16 17 17 16 13 9 11 14 13 12 12 15 15 14 16 17 16 14 14 15 15 15 16 17 16 16 16
18 19 21 22 21 22 22 21 23 26 29 30 31 35 38 39 40 34 14 16 25 24 21 23 25 26 27 28 31 34 36 37 37 36 33 30 26 26 26 22 21 22 19 17 24 24 16 14 16 15 15 14 12 11 13 12 12 13 15 16 16 15 15 14 12 12 14 15 15 16 17 18 19 19
17 17 19 21 21 20 20 19 20 23 27 30 31 34 38 37 37 37 31 14 12 23 24 21 20 22 24 25 26 29 32 33 34 33 32 30 27 25 27 25 21 19 14 12 21 23 16 13 15 15 15 13 11 10 11 11 12 13 14 16 17 15 13 13 13 12 13 16 16 15 16 18 20 21
16 17 18 20 18 18 18 17 17 19 23 27 30 33 36 36 35 36 37 32 21 7 9 16 18 22 25 24 23 28 30 28 27 28 28 29 27 26 27 25 20 16 10 9 16 19 15 12 14 15 15 13 11 10 10 10 13 14 14 16 18 16 13 14 14 12 11 14 15 15 17 19 20 21
16 16 17 17 15 14 15 15 15 17 19 24 28 31 33 34 35 35 33 31 30 28 20 11 6 7 17 25 29 33 31 25 24 28 29 29 29 29 27 24 22 20 16 13 15 17 16 14 13 13 14 14 12 12 12 11 12 16 17 18 18 16 14 15 14 11 11 12 12 14 17 19 20 21
17 16 15 14 12 11 12 14 15 16 17 20 25 29 30 31 31 32 31 28 25 24 25 25 24 19 9 6 21 30 30 26 27 29 27 25 27 29 26 22 21 23 23 21 18 19 20 18 14 12 15 16 13 13 13 10 10 15 19 19 17 14 14 16 16 12 11 11 11 13 14 14 17 20
17 16 14 13 11 11 12 14 15 16 16 19 23 25 27 28 28 28 28 28 27 25 24 25 25 26 26 19 6 9 18 24 28 29 26 22 24 27 25 20 17 18 22 22 19 18 21 21 16 15 17 16 13 13 14 13 11 13 17 19 19 15 15 19 18 13 12 11 11 12 12 11 15 19
17 14 11 10 10 10 11 14 16 17 19 21 23 23 24 25 27 27 27 28 28 28 28 28 27 27 29 28 23 16 9 7 16 25 27 24 22 22 20 16 12 12 15 17 17 17 19 19 17 16 16 16 13 12 13 13 12 13 15 16 17 14 15 19 19 15 13 12 12 12 11 9 13 16
14 12 9 8 10 11 11 13 14 16 19 22 22 22 22 24 25 26 27 28 29 29 29 29 27 27 28 28 26 24 20 15 9 14 19 20 19 19 15 12 11 13 13 14 14 14 14 16 16 14 14 16 14 14 14 11 9 11 11 11 13 14 14 17 17 15 14 14 12 13 12 10 11 13
11 11 9 10 11 11 12 13 13 15 17 20 20 20 21 22 24 25 25 26 27 28 29 28 27 27 28 27 27 26 24 23 20 14 13 13 14 14 13 10 9 10 12 12 12 11 10 13 13 10 11 13 12 13 15 11 6 8 10 10 11 13 13 14 15 14 14 13 12 12 12 11 11 12
8 10 10 10 11 12 12 13 14 15 15 17 18 20 20 21 23 24 24 24 25 27 28 27 26 27 26 25 26 26 26 26 26 24 22 21 19 19 19 18 16 14 12 10 9 9 10 13 13 10 10 11 8 9 12 10 7 10 12 11 11 13 14 14 14 14 13 12 10 10 10 11 11 12
9 11 11 10 12 13 13 13 14 15 15 16 17 18 20 22 24 23 22 21 23 25 26 25 24 25 25 25 25 26 26 26 25 23 24 23 21 21 21 20 18 18 18 16 15 13 9 9 12 10 8 7 7 6 6 4 7 14 15 11 12 15 16 14 13 13 12 11 9 9 9 9 10 11
11 12 12 12 13 13 13 14 15 15 15 16 16 16 18 20 24 25 23 22 23 24 24 23 23 23 24 24 24 24 25 25 23 21 20 20 19 19 19 18 18 18 18 19 20 19 17 12 7 5 2 2 3 5 5 6 6 11 14 13 13 15 15 13 12 12 12 10 9 9 8 7 10 12
12 13 13 13 14 14 13 14 15 15 16 16 16 16 17 19 23 26 27 26 26 24 23 23 23 23 23 23 23 23 23 23 22 20 19 18 17 17 17 17 17 17 18 19 21 21 21 20 16 12 7 4 3 3 4 5 7 6 7 12 15 14 14 13 13 13 12 10 10 9 6 6 10 13
12 13 13 13 14 14 14 14 15 15 16 16 16 17 18 19 21 24 26 26 25 23 23 24 23 23 24 22 20 20 21 20 20 19 17 16 16 16 16 16 15 15 16 18 19 19 20 20 19 17 15 10 7 6 7 6 7 9 9 8 10 10 11 11 10 11 11 11 10 8 5 6 10 10
12 13 14 14 14 14 14 14 15 15 16 16 17 17 17 18 19 20 22 23 21 19 20 22 21 22 24 22 18 18 18 17 16 16 15 14 13 13 14 14 13 13 13 13 14 15 16 16 15 15 16 14 11 12 14 13 10 10 11 9 7 7 8 8 8 9 9 9 10 10 8 7 8 8
13 14 14 15 15 15 15 15 15 15 16 16 17 17 17 17 19 20 20 21 20 18 18 19 19 20 21 19 17 16 17 15 14 14 13 11 10 8 8 9 9 9 8 8 8 10 11 11 12 12 12 12 12 11 10 9 8 9 10 9 7 6 5 5 6 7 5 5 7 9 9 8 8 8
13 13 13 14 15 16 17 17 17 16 16 16 17 18 17 17 18 19 19 20 20 19 18 18 18 18 18 17 16 15 16 16 15 13 11 9 7 5 4 4 3 4 4 5 5 5 6 6 8 8 9 10 10 9 6 4 4 6 8 8 7 7 6 6 7 7 6 4 4 5 6 6 6 7
12 12 12 13 15 16 17 19 19 19 18 17 17 18 18 17 18 19 20 20 20 20 19 19 19 18 18 18 16 15 15 17 16 14 12 9 6 4 3 3 1 0 1 2 2 2 2 3 3 4 5 6 7 6 4 2 3 4 4 6 7 8 8 9 10 10 9 8 8 8 8 6 4 4
11 10 11 12 13 14 16 18 19 20 20 18 17 18 18 17 17 18 19 20 20 20 19 19 19 19 19 19 18 17 16 16 15 15 14 12 8 6 4 3 1 1 1 1 2 1 1 2 2 1 0 2 4 4 3 2 2 2 2 3 5 6 7 9 10 9 8 8 8 7 7 7 7 6
10 10 10 11 11 12 14 15 16 18 19 19 18 17 17 17 17 17 18 20 20 20 19 19 19 19 19 18 18 19 19 17 16 15 16 15 13 9 6 3 2 0 2 2 1 2 2 3 3 3 3 4 3 4 4 4 4 4 2 2 3 4 5 5 6 5 5 5 5 5 5 5 5 4
Wind_Direction
275 275 277 273 264 262 260 254 254 255 251 248 245 243 243 241 240 246 247 247 245 241 247 251 242 227 224 226 228 231 233 236 238 238 238 239 239 242 248 250 248 247 245 240 237 237 237 238 239 240 240 240 241 242 242 243 244 244 246 246 247 247 248 248 248 248 250 250 251 250 248 247 248 250
278 272 272 272 268 264 261 257 252 252 254 251 248 247 245 238 235 242 247 247 245 239 241 248 247 232 221 224 229 231 232 236 239 240 238 237 236 238 242 247 246 244 242 238 235 233 233 234 235 235 236 237 238 239 240 241 242 243 244 245 246 247 247 247 247 247 247 248 249 249 248 247 247 248
285 279 274 272 270 265 261 259 255 252 254 253 250 249 245 239 235 237 243 248 243 236 235 244 249 243 226 223 226 230 233 237 239 240 239 234 234 235 238 243 245 242 240 239 236 234 233 232 233 232 233 234 235 236 238 240 241 242 244 246 247 248 249 248 248 247 246 246 247 247 248 247 246 246
293 287 280 276 273 268 262 259 258 256 251 249 249 247 244 242 237 232 235 244 245 239 241 250 253 250 239 229 226 228 234 235 234 238 238 233 231 231 233 240 244 242 239 237 234 233 232 231 230 230 230 232 233 235 237 239 241 242 244 247 249 250 251 250 248 247 246 246 246 246 246 246 246 245
297 291 286 282 278 273 267 261 260 257 249 245 244 242 242 245 242 232 228 234 246 248 247 249 249 248 245 239 230 229 235 235 232 234 234 231 228 225 224 230 239 239 235 231 230 228 228 227 227 227 228 229 232 234 236 237 239 241 244 246 249 251 251 251 249 247 246 247 246 246 245 246 245 244
300 296 291 287 284 277 270 264 263 261 251 242 240 240 240 242 241 233 226 226 234 244 243 241 244 244 242 239 235 231 234 235 233 230 229 230 227 223 218 218 231 237 230 225 224 224 223 223 222 223 224 226 229 231 234 236 238 241 244 247 250 251 252 251 250 248 247 247 247 246 245 245 245 245
304 301 296 291 289 284 273 265 263 261 254 243 240 242 240 240 240 234 224 224 227 235 237 235 239 241 238 236 236 234 234 234 233 230 228 226 223 222 220 214 219 229 224 219 219 219 219 220 220 222 224 227 230 232 235 237 239 242 245 248 251 252 253 253 252 250 248 248 247 246 246 246 246 246
307 302 298 293 292 290 283 273 262 258 256 246 238 242 241 239 241 236 222 223 229 234 238 236 236 239 239 237 235 234 235 234 233 232 227 221 219 223 223 216 216 221 220 219 221 221 220 222 223 225 227 229 232 234 236 239 241 244 246 248 251 252 253 254 253 252 251 250 250 249 248 248 248 247
308 303 300 297 294 293 290 284 270 258 258 254 241 238 239 239 242 239 225 223 230 233 239 240 237 238 240 238 234 230 231 232 233 230 226 221 219 220 223 221 222 226 226 227 228 224 223 225 225 226 227 229 232 235 237 240 243 245 247 249 251 252 253 254 253 253 253 252 252 251 251 250 249 248
310 308 306 304 301 297 296 294 283 265 256 258 249 236 234 237 242 241 228 219 224 228 235 240 240 238 236 234 231 225 225 229 232 228 225 224 220 216 216 219 222 225 227 230 230 226 224 225 225 226 227 230 233 236 240 243 245 247 248 249 251 252 252 253 254 254 253 253 253 253 252 251 250 249
312 313 312 311 309 304 305 309 300 279 257 254 253 243 237 235 238 240 232 218 218 223 228 235 236 236 234 231 230 225 221 224 230 229 226 225 221 214 215 221 221 219 221 228 230 227 226 226 226 227 229 231 235 237 241 244 247 249 250 250 250 251 252 252 253 253 253 254 254 255 255 254 252 251
318 319 318 317 314 310 311 316 313 294 271 261 257 250 242 232 230 237 237 227 218 218 223 228 230 232 234 231 228 224 217 217 222 224 226 229 223 213 218 226 224 219 220 224 224 222 223 224 227 229 230 232 234 237 241 245 249 251 251 251 251 251 252 252 252 252 252 253 256 257 257 255 252 251
323 323 322 321 320 318 317 321 322 310 291 283 279 269 257 245 235 235 239 236 224 217 220 223 224 227 231 229 225 221 216 216 219 218 222 231 229 216 218 224 220 216 221 225 220 215 215 216 221 227 231 234 236 237 242 246 251 253 252 251 251 251 252 251 249 249 251 254 257 257 256 253 251 249
329 327 323 324 326 325 325 328 333 331 317 303 292 282 274 265 253 240 235 233 227 221 223 225 223 223 227 228 226 223 218 217 219 217 216 223 224 216 216 225 222 216 218 223 220 213 211 210 214 221 226 231 236 238 243 249 253 255 253 251 251 250 250 249 247 248 251 255 257 255 253 251 249 246
331 329 324 328 331 329 329 332 335 339 336 328 312 295 282 269 259 249 239 232 225 222 225 227 227 227 226 224 223 222 220 218 220 219 215 214 213 209 211 226 226 216 211 213 215 213 209 205 210 218 218 219 226 232 241 250 256 257 254 249 249 248 247 247 247 249 252 255 255 252 250 249 246 243
330 329 329 332 332 330 332 334 335 335 333 330 325 316 299 279 265 256 250 244 233 225 225 227 230 230 226 220 218 220 221 219 219 219 215 210 207 209 214 221 224 212 203 204 212 213 207 202 207 216 215 213 218 225 235 246 253 255 252 247 245 244 245 246 248 250 252 253 252 250 249 248 245 242
326 327 331 333 330 329 334 335 334 335 333 329 326 322 310 291 273 259 251 247 243 238 234 229 228 230 228 223 220 220 217 216 216 216 215 209 206 211 217 222 227 217 201 201 209 211 208 207 207 211 214 214 217 226 237 246 250 249 248 244 241 241 243 246 249 250 250 250 248 248 248 247 246 243
322 325 328 329 327 327 331 334 335 337 336 331 325 320 312 296 277 262 253 247 244 242 240 234 230 229 230 229 227 220 215 214 212 211 213 208 206 213 221 222 226 217 197 194 203 208 207 207 207 211 214 213 214 223 237 245 247 244 242 239 238 240 243 245 246 246 247 247 246 245 245 246 245 243
322 325 326 326 326 326 327 330 336 339 338 333 325 318 314 302 282 264 251 243 239 237 236 236 233 230 230 232 231 222 217 217 213 208 212 212 211 219 223 221 219 211 197 195 200 208 206 203 208 216 214 210 213 222 235 245 248 243 235 231 233 238 240 240 240 241 242 245 246 245 244 243 241 238
321 325 325 324 324 325 326 327 331 337 338 333 325 321 318 310 293 270 251 241 236 232 231 232 232 232 233 235 234 226 221 219 214 208 210 211 213 224 232 226 221 215 208 203 202 207 208 203 209 216 212 209 213 218 230 246 252 242 226 224 230 233 234 234 235 237 238 241 245 244 242 239 235 231
319 322 324 324 321 321 325 327 328 334 337 332 326 325 323 316 302 279 255 242 236 232 231 230 230 231 233 235 236 233 230 228 218 210 210 206 207 217 230 234 228 219 210 204 202 206 209 203 205 211 210 209 212 216 223 236 247 240 224 222 227 228 227 229 231 233 234 236 240 239 237 234 228 222
316 319 321 323 321 322 325 328 331 334 335 332 330 329 326 321 311 287 259 242 234 231 231 232 231 232 232 232 235 235 236 234 224 214 212 206 203 211 218 224 227 224 216 205 198 202 207 201 200 205 206 207 212 217 217 215 227 235 225 218 220 221 221 224 225 227 229 229 231 232 230 227 220 213
311 314 316 319 322 325 327 331 336 338 338 335 334 333 329 323 317 303 271 245 230 221 222 228 231 231 230 231 233 234 235 231 223 219 218 212 209 212 218 222 225 229 225 207 196 199 206 199 195 198 201 208 210 208 206 203 211 223 217 210 212 214 214 218 219 221 224 224 224 223 220 216 211 206
307 309 312 316 323 328 329 333 338 340 342 341 339 338 333 323 321 316 285 253 236 219 213 219 224 225 226 227 230 231 229 224 220 222 222 219 217 217 218 220 220 229 232 206 191 196 207 202 198 199 204 219 210 190 192 198 202 205 203 202 207 211 212 215 217 219 221 221 220 218 213 207 204 200
302 306 308 310 319 329 331 333 335 338 343 347 345 343 339 333 334 330 287 247 242 230 215 212 215 218 221 222 224 225 224 220 219 220 220 220 221 222 221 219 214 225 237 212 191 196 208 207 203 200 203 218 216 184 181 191 196 197 199 200 202 208 212 214 215 218 219 218 218 217 213 209 205 199
298 305 308 306 313 325 328 328 333 339 346 352 351 350 349 345 347 352 337 244 237 234 222 212 210 213 217 219 220 221 220 219 218 217 217 217 218 221 224 221 214 221 234 218 198 200 208 211 209 201 197 208 214 194 182 186 193 197 201 204 204 205 208 207 204 210 214 214 215 214 212 210 208 203
299 306 311 308 311 320 322 328 339 344 348 354 357 358 357 354 355 7 18 9 257 237 229 218 209 210 213 215 217 217 216 216 215 213 214 217 218 220 225 227 226 227 229 204 196 202 209 213 212 205 198 200 204 199 192 190 190 191 198 206 207 204 202 199 199 204 204 206 211 215 212 209 209 206
303 308 313 314 315 319 322 333 346 347 348 357 3 4 3 3 5 13 20 24 25 7 247 228 218 214 213 212 211 211 211 212 210 208 211 217 219 221 225 228 234 240 231 187 190 203 211 213 210 205 200 196 195 200 205 198 187 185 194 204 205 202 198 195 199 199 194 199 211 214 208 205 208 210
310 314 322 322 320 323 328 340 352 351 351 2 9 9 8 9 13 17 17 19 29 36 29 9 335 248 223 220 219 214 210 208 206 207 213 220 223 224 225 227 231 236 233 215 204 206 208 209 207 200 196 198 201 205 210 205 186 181 189 198 197 194 193 193 193 191 187 195 206 205 200 201 206 209
316 323 334 335 333 339 348 354 357 357 358 5 11 14 13 12 15 19 19 18 23 31 33 28 21 20 26 217 217 211 205 205 208 208 209 215 219 218 218 219 223 227 230 228 223 216 210 207 205 199 195 199 206 206 209 216 199 184 187 191 186 180 187 192 190 187 187 189 190 191 194 201 205 204
319 329 336 337 342 355 359 356 359 3 6 9 11 13 14 15 17 19 22 25 27 28 31 30 25 28 39 48 70 183 193 202 208 207 205 206 208 208 208 211 215 218 220 221 219 216 212 209 207 204 200 201 203 202 208 223 221 196 187 189 186 179 181 186 186 185 187 184 179 180 183 195 203 202
325 335 336 334 341 352 352 349 352 360 6 10 10 10 11 15 19 21 24 28 30 30 31 30 26 29 37 39 40 49 78 156 188 195 197 196 195 196 197 197 189 185 195 202 202 205 207 205 203 204 203 203 201 198 203 215 215 199 190 191 192 181 171 174 178 181 182 177 174 178 179 185 198 198
328 333 341 352 355 354 353 351 349 352 359 4 7 9 12 14 16 18 21 25 27 30 32 29 24 27 33 35 38 46 50 55 95 163 177 178 180 184 185 180 170 166 171 179 185 192 197 198 200 203 204 203 202 200 199 198 198 198 191 185 187 183 170 167 170 173 174 173 172 177 180 182 189 191
326 332 353 12 6 358 359 358 353 350 354 359 1 3 8 12 13 12 16 23 27 29 30 28 25 27 32 33 35 42 48 51 59 80 107 123 137 143 133 118 118 137 152 160 167 177 188 193 195 196 197 198 200 203 199 191 185 194 185 173 180 180 164 157 161 166 170 174 174 174 175 179 186 190
344 353 8 16 11 6 6 6 1 358 359 0 360 1 4 8 11 9 10 19 27 27 26 25 27 30 34 35 36 41 47 51 54 59 66 74 81 88 89 83 78 87 100 108 120 142 170 183 182 180 183 180 171 181 194 196 190 182 176 172 173 161 142 144 160 166 169 176 182 181 178 179 183 187
17 14 15 16 14 11 10 9 6 4 6 6 6 6 6 9 13 13 10 18 30 32 27 24 26 30 33 37 40 42 44 47 50 53 58 63 65 67 70 69 67 71 72 66 69 84 108 153 171 176 180 175 159 153 167 180 182 181 180 176 165 156 150 152 159 166 173 179 187 195 194 184 176 179
30 25 21 21 19 15 13 12 8 6 8 10 11 11 8 10 16 21 24 30 38 40 36 32 31 32 34 36 39 41 43 44 45 48 54 60 60 60 63 62 58 59 61 58 59 63 64 69 96 129 149 165 146 124 98 85 127 169 184 185 171 164 165 162 158 169 183 187 190 202 206 183 170 176
36 31 26 24 21 18 16 14 10 8 8 10 11 10 8 10 18 25 32 37 39 40 40 39 37 34 34 35 37 40 43 43 41 41 45 52 56 56 59 62 60 57 60 61 60 60 59 55 53 53 54 58 76 87 85 73 69 89 148 169 169 170 173 171 168 177 188 195 200 207 207 172 169 178
36 29 25 23 19 17 15 13 11 9 8 8 9 10 8 9 13 20 27 31 31 33 36 38 36 36 38 38 38 41 44 44 41 38 38 45 54 59 61 66 67 62 61 62 62 60 58 56 53 53 57 64 67 72 88 96 70 54 69 114 141 151 159 164 168 179 193 200 194 183 171 164 169 175
35 29 25 21 17 14 12 10 9 7 5 4 6 8 10 11 11 14 19 21 21 23 29 31 31 34 37 36 35 39 44 45 43 41 40 42 52 62 69 74 74 69 63 61 61 61 60 59 58 58 61 69 76 81 86 89 80 64 61 70 91 115 134 151 161 173 192 198 178 159 155 161 162 166
34 33 28 23 21 18 15 11 9 7 6 6 6 6 8 11 12 13 17 19 19 20 24 25 25 28 30 28 27 33 37 38 40 44 45 44 48 65 80 84 79 75 69 61 57 61 65 67 65 60 57 58 61 67 73 72 63 62 64 64 70 91 112 134 147 152 166 186 179 168 159 149 144 153
36 36 32 28 25 23 23 23 20 15 12 11 9 7 7 10 12 13 15 17 18 18 21 21 20 23 26 24 23 26 26 24 27 34 41 42 41 49 70 75 67 67 70 63 61 70 80 82 74 63 57 55 54 54 59 58 56 69 77 76 76 84 92 100 115 129 131 126 132 134 126 130 151 157
34 35 32 30 27 25 27 29 29 29 27 20 14 12 11 12 14 15 14 14 14 15 17 16 15 17 19 19 20 23 22 20 18 17 20 29 33 29 32 36 26 41 57 44 58 101 129 122 93 75 71 75 78 77 81 98 103 102 105 103 95 91 92 96 101 108 110 99 87 82 79 76 88 104
30 29 28 26 24 24 25 25 26 30 30 23 18 17 16 15 16 16 16 16 15 13 13 14 15 15 14 14 16 19 19 19 16 11 9 13 21 28 32 33 29 225 227 315 357 345 261 239 223 200 106 106 120 123 124 143 149 136 128 127 115 104 102 104 103 104 108 106 98 92 85 73 66 69
28 28 29 28 25 22 21 19 19 22 24 23 21 19 16 16 15 14 14 15 14 12 11 12 13 13 12 13 16 16 14 15 18 16 11 9 9 10 15 32 55 104 211 214 293 339 302 259 245 256 287 293 248 200 187 182 174 166 153 137 129 119 116 118 117 114 119 130 131 126 123 113 99 96